Regional Weather Roundup
Issued by NWS Newport/Morehead, NC

Current Version | Previous Version | Graphics & Text | Print | Product List | Glossary On
Versions: 1 2 3 4 5 6 7 8 9 10 11 12 13 14 15 16 17 18 19 20 21 22 23 24 25 26 27 28 29 30 31 32 33 34 35 36 37 38 39 40 41 42 43 44 45 46 47 48 49 50
000 ASUS42 KMHX 301025 RWRMHX WEATHER ROUNDUP FOR EASTERN NORTH CAROLINA NATIONAL WEATHER SERVICE NEWPORT/MOREHEAD CITY NC 600 AM EDT SUN AUG 30 2015 NOTE: "FAIR" INDICATES FEW OR NO CLOUDS BELOW 12,000 FEET WITH NO SIGNIFICANT WEATHER AND/OR OBSTRUCTIONS TO VISIBILITY NCZ015>017-031-032-045>047-102-103-301100- NORTH COAST CITY SKY/WX TMP DP RH WIND PRES REMARKS EDENTON PTCLDY 64 62 91 N3 30.13R ELIZABETH CITY PTCLDY 67 64 90 W5 30.12R KITTY HAWK MOSUNNY 74 70 86 CALM 30.09R MANTEO MOCLDY 72 71 96 CALM 30.11R $$ NCZ045>047-081-094-103-104-301100- CENTRAL COAST CITY SKY/WX TMP DP RH WIND PRES REMARKS FRISCO PTCLDY 75 73 93 N3 30.09R SWANQUARTER NOT AVBL $$ NCZ095-097-098-100-101-301100- SOUTHERN COAST CITY SKY/WX TMP DP RH WIND PRES REMARKS BEAUFORT CLEAR 69 68 96 N5 30.11R CEDAR ISLAND NOT AVBL JACKSONVILLE MOCLDY 67 64 90 CALM 30.11R PINEY ISLAND SUNNY N/A N/A N/A N6 30.10R WILMINGTON MOCLDY 70 65 84 CALM 30.11R $$ NCZ011>013-027>030-043-044-078>080-089-090>093-098-301100- COASTAL PLAIN CITY SKY/WX TMP DP RH WIND PRES REMARKS AHOSKIE MOCLDY 61 60 96 CALM 30.14R CLINTON PTCLDY 64 64 99 CALM 30.14R ELIZABETHTOWN CLEAR 67 65 95 CALM 30.13R GOLDSBORO PTCLDY 66 63 90 NW1 30.11S GREENVILLE PTCLDY 64 64 100 CALM 30.15R FOG HAVELOCK PTCLDY 68 66 93 CALM 30.12R KENANSVILLE N/A 64 63 97 CALM 30.14R KINSTON CLEAR 63 62 96 CALM 30.14R FOG NEW BERN PTCLDY 67 65 93 CALM 30.13R FOG RICHLANDS PTCLDY 64 59 82 CALM 30.14R ROCKY MOUNT PTCLDY 64 63 96 CALM 30.13S WASHINGTON CLEAR 64 63 96 CALM 30.14R WHITEVILLE CLEAR 67 65 93 CALM 30.11S $$ AMZ130-135-150-152-154-156-158-170-250-252-270-ANZ085-086-088-633-658-670-301100- MARINE OBSERVATIONS STATION/POSITION TIME TEMP WIND PRES WAVE SWELL AIR SEA DIR/SP/G HT/PER HT/PER (UTC) (F) (DEG/KT/KT) (MB) (FT/S) (FT/S) CHESAPEAKE LIGHT 1000 76 350/ 5/ 6 1020.3 64 E VA BEACH 0950 77 77 40/ 10/ 10 1018.3 4/10 3/10 DUCK NOT AVBL 2 E DUCK 0911 78 N/A 4/12 2/12 OREGON INLET NOT AVBL 13E OREGON INLT 1000 78 N/A 4/11 2/11 HATTERAS CG NOT AVBL DIAMOND BUOY 0950 78 81 350/ 10/ 12 1018.6 4/10 3/10 CAPE LOOKOUT 1000 74 350/ 5/ 5 1019.1 BEAUFORT LAB NOT AVBL 30 SE NEW RVR IN 0908 79 81 30/ 6/ 8 1019.4 30 SE NEW RVR IN 0925 81 N/A 4/11 2/11 27 SE WRIGHTSVLE 1000 76 81 50/ 4/ 6 N/A 5 SE WRIGHTSVLE 0908 80 82 90/ 4/ 6 1019.3 225 S CAPE HAT 0950 83 84 230/ 4/ 6 1019.3 4/10 5/10 41 SE CHARLESTON 0950 77 85 330/ 4/ 6 1018.2 4/11 3/11 $$

USA.gov is the U.S. government's official web portal to all federal, state and local government web resources and services.